Home > Weather > Paphos > Past weeks

Flag for Cyprus Past Weather in Paphos, Cyprus — Yesterday and Last 2 Weeks

Now
75 °F

Passing clouds.


Feels Like: 75 °F
Forecast: 77 / 86 °F
Wind: 7 mph from North

Location: Paphos Airport

Current Time: Aug 28, 2016 at 1:38:08 AM

Latest Report: Aug 28, 2016 at 1:00 AM


Visibility: N/A

Pressure: 29.89 "Hg

Humidity: 83%

Dew Point: 70 °F

Location of PaphosLocation

Past Weather in Paphos — Graph

°F

Paphos Temperature Yesterday

Maximum temperature yesterday: 88 °F (at 11:00 AM)
Minimum temperature yesterday: 73 °F (at 4:00 AM)
Average temperature yesterday: 81 °F

High & Low Weather Summary for the Past Weeks

 TemperatureHumidityPressure
High91 °F (Aug 13, 1:30 PM)94% (Aug 14, 6:00 AM)29.92 "Hg (Aug 14, 6:00 AM)
Low70 °F (Aug 18, 3:30 AM)45% (Aug 21, 9:00 AM)29.68 "Hg (Aug 17, 3:30 AM)
Average81 °F74%29.77 "Hg
* Reported Aug 13 12:00 AM — Aug 28 12:30 AM, Paphos, Weather by CustomWeather, © 2016

Note: Actual official high and low records may vary slightly from our data, if they occured in-between our weather recording intervals... More about our weather records

Advertising

Paphos Weather History for the Previous 24 Hours

Scroll right to see more
 ConditionsComfort  
Time TempWeatherWind HumidityBarometerVisibility
12:30 AM
Sun, Aug 28
75 °FPassing clouds.7 mph83%29.89 "HgN/A
12:00 AM77 °FPassing clouds.5 mph79%29.89 "HgN/A
11:30 PM
Sat, Aug 27
79 °FPassing clouds.6 mph84%29.89 "HgN/A
11:00 PM79 °FPassing clouds.9 mph84%29.89 "HgN/A
10:30 PM79 °FPassing clouds.9 mph84%29.92 "HgN/A
10:00 PM79 °FPassing clouds.8 mph84%29.92 "HgN/A
9:30 PM79 °FPassing clouds.9 mph84%29.89 "HgN/A
9:00 PM79 °FPassing clouds.9 mph84%29.89 "HgN/A
8:30 PM81 °FPassing clouds.12 mph79%29.89 "HgN/A
8:00 PM81 °FPassing clouds.12 mph79%29.89 "HgN/A
7:30 PM81 °FPassing clouds.12 mph79%29.89 "HgN/A
7:00 PM82 °FPassing clouds.13 mph74%29.89 "HgN/A
6:30 PM82 °FPassing clouds.14 mph74%29.89 "HgN/A
6:00 PM84 °FPassing clouds.12 mph70%29.89 "HgN/A
5:30 PM86 °FPassing clouds.14 mph66%29.89 "HgN/A
5:00 PM86 °FPassing clouds.12 mph66%29.89 "HgN/A
4:30 PM88 °FPassing clouds.12 mph66%29.89 "HgN/A
4:00 PM88 °FPassing clouds.13 mph62%29.89 "HgN/A
3:30 PM88 °FPassing clouds.14 mph62%29.89 "HgN/A
3:00 PM86 °FPassing clouds.13 mph66%29.89 "HgN/A
2:30 PM86 °FPassing clouds.14 mph66%29.89 "HgN/A
2:00 PM84 °FPassing clouds.12 mph70%29.92 "HgN/A
1:30 PM86 °FPassing clouds.12 mph66%29.92 "HgN/A
1:00 PM86 °FPassing clouds.12 mph66%29.92 "HgN/A
12:30 PM86 °FPassing clouds.12 mph66%29.92 "HgN/A
12:00 PM86 °FPassing clouds.8 mph70%29.92 "HgN/A
11:30 AM84 °FPassing clouds.8 mph70%29.92 "HgN/A
11:00 AM88 °FPassing clouds.7 mph62%29.92 "HgN/A
10:30 AM86 °FPassing clouds.7 mph62%29.92 "HgN/A
10:00 AM84 °FPassing clouds.7 mph62%29.92 "HgN/A
9:30 AM84 °FPassing clouds.6 mph66%29.92 "HgN/A
9:00 AM84 °FPassing clouds.2 mph66%29.89 "HgN/A
8:30 AM82 °FPassing clouds.7 mph62%29.89 "HgN/A
8:00 AM79 °FPassing clouds.7 mph65%29.89 "HgN/A
7:30 AM77 °FPassing clouds.8 mph69%29.89 "HgN/A
7:00 AM73 °FPassing clouds.8 mph78%29.89 "HgN/A
6:30 AM73 °FPassing clouds.8 mph78%29.86 "HgN/A
6:00 AM73 °FPassing clouds.6 mph83%29.86 "HgN/A
5:30 AM73 °FPassing clouds.6 mph83%29.86 "HgN/A
5:00 AM73 °FPassing clouds.5 mph83%29.86 "HgN/A
4:30 AM73 °FPassing clouds.6 mph83%29.86 "HgN/A
4:00 AM73 °FPassing clouds.7 mph89%29.86 "HgN/A
3:30 AM75 °FMild.6 mph83%29.86 "HgN/A
3:00 AM75 °FPassing clouds.7 mph83%29.86 "HgN/A
2:30 AM75 °FPassing clouds.7 mph83%29.86 "HgN/A
2:00 AM75 °FPassing clouds.6 mph83%29.86 "HgN/A
1:30 AM75 °FPassing clouds.7 mph83%29.86 "HgN/A
1:00 AM75 °FPassing clouds.7 mph89%29.86 "HgN/A
Weather by CustomWeather, © 2016

See weather overviewHow to use our weather pages